Regional Weather Roundup
Issued by NWS Spokane, WA

Home | Current Version | Previous Version | Text Only | Print | Product List | Glossary On
Versions: 1 2 3 4 5 6 7 8 9 10 11 12 13 14 15 16 17 18 19 20 21 22 23 24 25 26 27 28 29 30 31 32 33 34 35 36 37 38 39 40 41 42 43 44 45 46 47 48 49 50
000
NZUS01 KOTX 301810
RWROTX
EASTERN WASHINGTON/NORTHERN IDAHO ROUNDUP
NATIONAL WEATHER SERVICE, SPOKANE WA
1100 AM PDT THU OCT 30 2014

Note: "fair" indicated few or no clouds below 12,000 feet with no
significant weather and/or obstructions to visibility.

...NORTHEAST WASHINGTON AND NORTHERN IDAHO PANHANDLE...

CITY           SKY/WX    TMP DP  RH WIND       PRES   REMARKS
SPOKANE INTL   CLOUDY    49  44  83 NE13      30.08F
SPOKANE DOWNTO CLOUDY    53  45  74 CALM      30.09F
COEUR D ALENE  CLOUDY    48  45  87 NE14      30.11F
DEER PARK      CLOUDY    53  44  71 N12       30.10F
SANDPOINT      CLOUDY    48  41  76 N16       30.14F

...SOUTHEAST WASHINGTON AND SOUTHERN IDAHO PANHANDLE...

CITY           SKY/WX    TMP DP  RH WIND       PRES   REMARKS
WALLA WALLA    CLOUDY    53  49  86 W5        30.01F FOG
PULLMAN/MOSCOW LGT RAIN  54  43  66 E12       30.09F
LEWISTON       LGT RAIN  54  46  74 E8        30.07F
LOWELL           N/A     54  46  74 CALM      30.17F

...COLUMBIA BASIN...

CITY           SKY/WX    TMP DP  RH WIND       PRES   REMARKS
EPHRATA        LGT RAIN  53  48  83 N9        30.04F
MOSES LAKE     CLOUDY    54  49  83 N7        30.05F
TRI CITIES     CLOUDY    54  51  90 NW5       30.04F
HERMISTON      CLOUDY    54  49  83 N7        30.01F
PENDLETON      CLOUDY    55  49  80 NW6       29.99F

...EAST SLOPES CASCADES...

CITY           SKY/WX    TMP DP  RH WIND       PRES   REMARKS
THE DALLES     CLOUDY    57  53  86 NE3       30.00F
YAKIMA         LGT RAIN  53  50  89 NW3       30.03F
ELLENSBURG     LGT RAIN  52  48  86 CALM      30.04F FOG
WENATCHEE      LGT RAIN  50  46  86 W3        30.06F
OMAK           LGT RAIN  47  45  93 CALM      30.08S

...SOUTHERN BRITISH COLUMBIA...

CITY           SKY/WX    TMP DP  RH WIND       PRES   REMARKS
PENTICTON      PTSUNNY   52  46  82 VRB2      30.04F
CASTLEGAR      PTSUNNY   48  45  87 N7        30.14F

...WESTERN MONTANA...

CITY           SKY/WX    TMP DP  RH WIND       PRES   REMARKS
MISSOULA       CLOUDY    45  41  86 CALM      30.24F

...NEIGHBORING CITIES...

CITY           SKY/WX    TMP DP  RH WIND       PRES   REMARKS
SEATTLE        CLOUDY    60  52  74 E13       29.84F
CALGARY        FOG       28  27  93 S12       30.16F VSB 1/2 WCI  18



USA.gov is the U.S. government's official web portal to all federal, state and local government web resources and services.